Location: Clinton NY
(43.0598°N, 75.3602°W)
Time: 16:39:31
(UTC-04:00)

Amateur Radio Satellites - All Passes

Search period start: 27 September 2016 16:09
Search period end: 28 September 2016 16:09
Location: Clinton NY, 43.0598°N, 75.3602°W

Satellite Date Start Highest point End Downlink Frequencies (MHz)
Time Altitude Azimuth
PHONESAT 2.4 27 Sep 16:09:42 16:11:43 17° 205° (SSW) 16:13:45 2401.200-2431.200
Cosmos 2491 27 Sep 16:15:12 16:23:48 57° 284° (WNW) 16:32:31 435.465 / 435.565
MOZHAYETS 4 27 Sep 16:15:35 16:19:49 34° 96° (E) 16:24:02
YUBILEINY 27 Sep 16:20:33 16:27:25 27° 279° (W) 16:34:17 435.215
BEESAT 27 Sep 16:22:14 16:26:43 40° 291° (WNW) 16:31:11 436.000
KKS-1 27 Sep 16:44:28 16:48:39 41° 99° (E) 16:52:49 437.445
NOAA 18 27 Sep 16:51:06 16:52:45 11° 54° (NE) 16:54:23 137.9125
AIST 1 27 Sep 16:51:20 16:55:39 87° 84° (E) 16:59:54
GOMX 1 27 Sep 16:51:43 16:54:24 14° 61° (ENE) 16:57:01 467.674
BRITE-PL 27 Sep 16:57:06 17:02:10 34° 68° (ENE) 17:07:10 437.365/2234.400
SO-50 27 Sep 17:02:54 17:07:10 31° 314° (NW) 17:11:25 436.795
HORYU 2 27 Sep 17:03:24 17:07:43 59° 73° (ENE) 17:12:04 437.375
O/OREOS (USA 219) 27 Sep 17:03:41 17:08:07 45° 62° (ENE) 17:12:31 437.305
STARS 27 Sep 17:19:21 17:23:34 46° 100° (E) 17:27:46 437.465
Cosmos 2504 27 Sep 17:30:49 17:35:57 20° 279° (W) 17:41:17 435.465 / 435.565
CUBESAT XI-V 27 Sep 17:34:08 17:38:18 30° 95° (E) 17:42:25 437.345
NOAA 15 27 Sep 17:35:07 17:39:57 37° 67° (ENE) 17:44:48 137.62
HO-68 27 Sep 17:42:36 17:44:23 11° 46° (NE) 17:46:09 435.675
Cubesat XI-IV 27 Sep 17:49:38 17:54:33 40° 68° (ENE) 17:59:29 437.490
CUTE-I 27 Sep 17:49:55 17:54:50 41° 68° (ENE) 17:59:47 437.470
MOZHAYETS 4 27 Sep 17:52:59 17:56:50 26° 293° (WNW) 18:00:39
AO-7 27 Sep 18:01:38 18:05:05 13° 273° (W) 18:08:33 29.400- 29.500
LilacSat-2 27 Sep 18:07:10 18:10:48 49° 74° (ENE) 18:14:27 437.200
RS-15 27 Sep 18:08:15 18:12:18 12° 92° (E) 18:16:25 29.354- 29.394
Cosmos 2491 27 Sep 18:20:05 18:22:59 12° 308° (NW) 18:25:53 435.465 / 435.565
KKS-1 27 Sep 18:21:41 18:24:56 20° 296° (WNW) 18:28:11 437.445
GOMX 1 27 Sep 18:26:24 18:31:50 86° 255° (WSW) 18:37:02 467.674
NOAA 18 27 Sep 18:27:00 18:32:27 72° 72° (ENE) 18:37:54 137.9125
CINEMA 3 27 Sep 18:31:11 18:33:03 13° 63° (ENE) 18:34:54 145.822/145.860
BRITE-PL 27 Sep 18:35:19 18:40:32 37° 264° (W) 18:45:43 437.365/2234.400
HORYU 2 27 Sep 18:42:31 18:44:40 13° 269° (W) 18:46:49 437.375
O/OREOS (USA 219) 27 Sep 18:43:56 18:47:10 19° 259° (W) 18:50:24 437.305
GONETS M04 27 Sep 18:45:25 18:52:25 25° 64° (ENE) 18:59:20
Cosmos 2499 27 Sep 18:48:31 18:53:49 20° 65° (ENE) 18:59:20 435.465 / 435.565
DOVE 4 27 Sep 18:50:12 18:55:13 74° 75° (ENE) 18:59:59 437.250
CUTE 1.7 + AOD 2 27 Sep 18:53:49 18:56:14 15° 63° (ENE) 18:58:40 437.475
CANX-2 27 Sep 18:54:33 18:57:21 17° 64° (ENE) 19:00:10 2200.000
STARS 27 Sep 18:56:38 18:59:34 18° 296° (WNW) 19:02:31 437.465
CUSAT 1 27 Sep 18:56:44 19:02:29 40° 88° (E) 19:09:24 437.405
SEEDS 27 Sep 18:57:11 18:58:30 11° 61° (ENE) 18:59:51 437.485
CUBESAT XI-V 27 Sep 19:11:33 19:15:36 29° 292° (WNW) 19:19:37 437.345
NOAA 15 27 Sep 19:15:09 19:19:45 30° 264° (W) 19:24:24 137.62
AAUSAT CUBESAT 2 27 Sep 19:21:02 19:22:10 11° 61° (ENE) 19:23:17 437.432
HO-68 27 Sep 19:23:36 19:30:30 52° 66° (ENE) 19:37:24 435.675
Cubesat XI-IV 27 Sep 19:30:14 19:34:43 27° 265° (W) 19:39:14 437.490
CUTE-I 27 Sep 19:30:33 19:34:59 27° 265° (W) 19:39:28 437.470
CUBEBUG 2 27 Sep 19:40:04 19:42:48 17° 65° (ENE) 19:45:32 437.445
LilacSat-2 27 Sep 19:44:00 19:45:23 12° 270° (W) 19:46:47 437.200
UWE-3 27 Sep 19:58:45 20:01:35 18° 65° (ENE) 20:04:24 435.000/436.395/437.385
ISS 27 Sep 19:59:23 20:01:28 16° 133° (SE) 20:03:34 145.825
COMPASS 1 27 Sep 20:01:50 20:05:41 37° 71° (ENE) 20:09:33 437.405
STRAND 1 27 Sep 20:05:06 20:10:06 49° 100° (E) 20:15:05 437.568
CINEMA 3 27 Sep 20:05:14 20:09:42 69° 258° (WSW) 20:14:01 145.822/145.860
GOMX 1 27 Sep 20:09:04 20:10:30 11° 273° (W) 20:11:54 467.674
NOAA 18 27 Sep 20:10:28 20:13:38 16° 269° (W) 20:16:49 137.9125
RS-15 27 Sep 20:10:38 20:21:54 62° 114° (ESE) 20:33:46 29.354- 29.394
DANDE 27 Sep 20:24:16 20:29:21 74° 96° (E) 20:36:11 436.750
Oscar 11 27 Sep 20:26:44 20:30:08 23° 67° (ENE) 20:33:33 145.826/435.025
CUTE 1.7 + AOD 2 27 Sep 20:27:29 20:31:38 54° 261° (W) 20:35:49 437.475
ZACube-1 27 Sep 20:28:15 20:31:33 23° 67° (ENE) 20:34:51 437.345
CANX-2 27 Sep 20:28:48 20:32:51 45° 261° (W) 20:36:57 2200.000
SEEDS 27 Sep 20:29:24 20:33:35 74° 257° (WSW) 20:37:51 437.485
DOVE 4 27 Sep 20:31:07 20:33:19 13° 270° (W) 20:35:30 437.250
CUSAT 1 27 Sep 20:38:30 20:44:28 41° 291° (WNW) 20:51:36 437.405
Cosmos 2499 27 Sep 20:40:14 20:47:46 83° 264° (W) 20:55:55 435.465 / 435.565
GONETS M04 27 Sep 20:41:22 20:50:11 76° 266° (W) 20:58:53
DELFI C3 27 Sep 20:42:46 20:44:40 13° 63° (ENE) 20:46:35 145.870
PRISM 27 Sep 20:46:02 20:46:52 10° 89° (E) 20:47:42 437.425
AAUSAT CUBESAT 2 27 Sep 20:52:52 20:57:01 75° 258° (WSW) 21:01:13 437.432
AO-85 27 Sep 21:02:38 21:07:28 38° 116° (ESE) 21:12:01 145.980
HO-68 27 Sep 21:12:13 21:18:27 32° 265° (W) 21:24:44 435.675
CUBEBUG 2 27 Sep 21:15:07 21:19:08 43° 261° (W) 21:23:06 437.445
FUNcube-1 27 Sep 21:21:30 21:25:38 84° 75° (ENE) 21:29:47 145.935
UWE-3 27 Sep 21:33:50 21:37:46 40° 262° (W) 21:41:41 435.000/436.395/437.385
ISS 27 Sep 21:34:23 21:37:38 66° 329° (NNW) 21:40:54 145.825
COMPASS 1 27 Sep 21:38:20 21:41:21 19° 267° (W) 21:44:24 437.405
STRAND 1 27 Sep 21:45:00 21:48:57 23° 297° (WNW) 21:52:52 437.568
Oscar 11 27 Sep 22:02:11 22:06:05 33° 263° (W) 22:10:02 145.826/435.025
TIGRISAT 27 Sep 22:03:31 22:03:54 10° 89° (E) 22:04:19 435.000
ZACube-1 27 Sep 22:04:04 22:07:43 30° 264° (W) 22:11:23 437.345
DANDE 27 Sep 22:09:20 22:13:17 19° 303° (WNW) 22:17:54 436.750
SO-50 27 Sep 22:14:44 22:15:18 10° 28° (NNE) 22:15:52 436.795
DELFI C3 27 Sep 22:15:07 22:19:02 56° 260° (W) 22:23:00 145.870
PRISM 27 Sep 22:18:29 22:22:37 66° 286° (WNW) 22:26:41 437.425
RS-15 27 Sep 22:23:34 22:34:52 49° 319° (NW) 22:46:43 29.354- 29.394
HUMSAT D 27 Sep 22:25:34 22:29:38 90° 256° (WSW) 22:33:47 437.325/437.525
Cosmos 2499 27 Sep 22:35:51 22:39:48 15° 282° (WNW) 22:43:52 435.465 / 435.565
UNISAT 6 27 Sep 22:41:05 22:44:55 29° 96° (E) 22:48:49 437.425
GONETS M04 27 Sep 22:41:06 22:45:22 15° 286° (WNW) 22:49:36
AO-85 27 Sep 22:43:20 22:47:58 33° 312° (NW) 22:52:21 145.980
DX 1 27 Sep 22:58:11 22:59:46 12° 60° (ENE) 23:01:20 434.975-435.025
ESTCUBE 1 27 Sep 23:02:43 23:06:54 38° 70° (ENE) 23:11:08 437.505/2401.250
VELOX 1 27 Sep 23:03:47 23:07:05 21° 65° (ENE) 23:10:23 145.980
JAS-2 27 Sep 23:06:14 23:08:56 12° 81° (E) 23:11:35 435.910
CUBEBUG 1 27 Sep 23:07:52 23:11:37 28° 68° (ENE) 23:15:22 437.445
AUBIESAT-1 27 Sep 23:08:58 23:11:44 18° 62° (ENE) 23:14:23 437.475
ISS 27 Sep 23:12:01 23:14:35 21° 349° (NNW) 23:17:09 145.825
ANTELSAT 27 Sep 23:16:06 23:20:30 68° 102° (ESE) 23:24:58 437.575/2403.000
TIGRISAT 27 Sep 23:36:41 23:41:05 78° 285° (WNW) 23:45:34 435.000
M-CUBED/EXP-1 PRIME 27 Sep 23:44:48 23:48:51 56° 69° (ENE) 23:52:37 437.505
50 SAT 27 Sep 23:47:13 23:50:43 49° 73° (ENE) 23:54:17 437.505
SPROUT 27 Sep 23:49:19 23:53:05 31° 69° (ENE) 23:56:52 437.525
SO-50 27 Sep 23:52:33 23:56:59 45° 50° (NE) 00:01:18 436.795
AISAT 27 Sep 23:55:06 23:59:32 72° 75° (ENE) 00:03:59 437.250
DUCHIFAT 1 27 Sep 23:55:27 23:58:35 20° 94° (E) 00:01:44 145.980
QB50P1 27 Sep 23:57:11 00:00:39 24° 95° (E) 00:04:06 145.935-145.965
UKube-1 28 Sep 00:02:51 00:06:55 40° 70° (ENE) 00:10:59 .
POPSAT HIP 1 28 Sep 00:10:26 00:14:15 33° 97° (E) 00:18:05 437.405
UNISAT 6 28 Sep 00:17:49 00:21:34 28° 292° (WNW) 00:25:22 437.425
NANOSAT C BR1 28 Sep 00:26:39 00:30:44 48° 99° (E) 00:34:49 145.865
Cosmos 2491 28 Sep 00:29:06 00:34:32 17° 58° (ENE) 00:39:55 435.465 / 435.565
DX 1 28 Sep 00:30:57 00:35:19 77° 257° (WSW) 00:39:43 434.975-435.025
VELOX 1 28 Sep 00:39:03 00:43:16 41° 261° (W) 00:47:30 145.980
ESTCUBE 1 28 Sep 00:40:20 00:43:50 22° 267° (W) 00:47:21 437.505/2401.250
RS-15 28 Sep 00:41:40 00:51:25 27° 352° (N) 01:01:23 29.354- 29.394
AUBIESAT-1 28 Sep 00:42:11 00:46:00 38° 256° (WSW) 00:49:34 437.475
CUBEBUG 1 28 Sep 00:43:59 00:47:50 29° 264° (W) 00:51:41 437.445
JAS-2 28 Sep 00:47:30 00:55:22 65° 100° (E) 01:02:51 435.910
ISS 28 Sep 00:49:24 00:51:53 20° 9° (N) 00:54:24 145.825
QB50P2 28 Sep 00:49:56 00:54:10 80° 284° (WNW) 00:58:23 145.880/145.840
POLYITAN 1 28 Sep 00:52:08 00:56:22 80° 283° (WNW) 01:00:35 437.675
ANTELSAT 28 Sep 00:54:35 00:56:41 13° 298° (WNW) 00:58:48 437.575/2403.000
BEESAT 3 28 Sep 01:07:55 01:11:38 44° 118° (ESE) 01:15:23 437.485
TISAT 1 28 Sep 01:09:37 01:13:38 47° 72° (ENE) 01:17:40 437.305
M-CUBED/EXP-1 PRIME 28 Sep 01:21:47 01:23:35 13° 262° (W) 01:25:19 437.505
50 SAT 28 Sep 01:23:31 01:24:31 11° 270° (W) 01:25:31 437.505
SPROUT 28 Sep 01:25:36 01:29:02 23° 266° (W) 01:32:30 437.525
ITUPSAT 1 28 Sep 01:27:19 01:30:25 17° 62° (ENE) 01:33:31 437.325
DUCHIFAT 1 28 Sep 01:30:34 01:34:23 35° 290° (WNW) 01:38:11 145.980
QB50P1 28 Sep 01:32:45 01:36:24 29° 292° (WNW) 01:40:05 145.935-145.965
BUGSAT 1 28 Sep 01:32:55 01:36:56 79° 286° (WNW) 01:40:57 437.445
YUBILEINY 28 Sep 01:33:38 01:37:44 14° 74° (ENE) 01:41:49 435.215
SO-50 28 Sep 01:33:40 01:37:09 22° 248° (WSW) 01:40:34 436.795
Oscar 19 28 Sep 01:33:49 01:37:44 21° 93° (E) 01:41:37 437.125/150
AISAT 28 Sep 01:35:09 01:36:29 11° 271° (W) 01:37:50 437.250
SWISSCUBE 28 Sep 01:39:31 01:43:22 25° 65° (ENE) 01:47:15 437.505
UKube-1 28 Sep 01:40:02 01:43:07 19° 267° (W) 01:46:13 .
POPSAT HIP 1 28 Sep 01:46:35 01:49:51 22° 294° (WNW) 01:53:07 437.405
BEESAT 28 Sep 01:52:12 01:56:18 30° 67° (ENE) 02:00:25 436.000
BEESAT 2 28 Sep 02:03:06 02:07:02 87° 123° (ESE) 02:11:03 435.950
NANOSAT C BR1 28 Sep 02:03:30 02:06:06 16° 296° (WNW) 02:08:40 145.865
Cosmos 2491 28 Sep 02:24:08 02:33:02 78° 81° (E) 02:41:51 435.465 / 435.565
ISS 28 Sep 02:25:41 02:28:55 53° 28° (NNE) 02:32:09 145.825
Gurwin Techsat 1B 28 Sep 02:30:48 02:35:40 35° 97° (E) 02:40:30 435.225
JAS-2 28 Sep 02:33:11 02:39:46 31° 300° (WNW) 02:46:12 435.910
BEESAT 3 28 Sep 02:46:30 02:49:29 20° 317° (NW) 02:52:30 437.485
TISAT 1 28 Sep 02:47:06 02:49:32 15° 268° (W) 02:51:59 437.305
RS-15 28 Sep 02:58:06 03:09:02 34° 27° (NNE) 03:19:54 29.354- 29.394
ITUPSAT 1 28 Sep 03:03:07 03:07:47 58° 259° (W) 03:12:31 437.325
Oscar 19 28 Sep 03:12:21 03:17:19 48° 290° (WNW) 03:22:13 437.125/150
SWISSCUBE 28 Sep 03:16:34 03:20:59 37° 262° (W) 03:25:25 437.505
MOZHAYETS 4 28 Sep 03:18:15 03:22:24 36° 69° (ENE) 03:26:36
YUBILEINY 28 Sep 03:24:10 03:32:54 74° 94° (E) 03:41:38 435.215
BEESAT 28 Sep 03:29:49 03:34:01 31° 264° (W) 03:38:15 436.000
KKS-1 28 Sep 03:43:11 03:47:23 43° 70° (ENE) 03:51:35 437.445
BEESAT 2 28 Sep 03:43:26 03:45:26 13° 322° (NW) 03:47:27 435.950
ISS 28 Sep 04:02:39 04:05:11 21° 225° (SW) 04:07:44 145.825
AO-7 28 Sep 04:03:19 04:10:55 38° 98° (E) 04:18:27 29.400- 29.500
PCSat 28 Sep 04:03:27 04:08:00 28° 109° (ESE) 04:12:34 145.827
ITAMSAT 1 28 Sep 04:05:17 04:10:31 72° 103° (ESE) 04:15:44 435.822/435.867
Gurwin Techsat 1B 28 Sep 04:10:52 04:15:31 32° 294° (WNW) 04:20:10 435.225
Cosmos 2504 28 Sep 04:15:36 04:22:52 61° 93° (E) 04:29:54 435.465 / 435.565
STARS 28 Sep 04:16:37 04:20:50 46° 71° (ENE) 04:25:02 437.465
Cosmos 2491 28 Sep 04:22:25 04:28:51 23° 281° (W) 04:35:16 435.465 / 435.565
AIST 2 28 Sep 04:25:51 04:29:57 83° 304° (NW) 04:34:07 435.215
CUBESAT XI-V 28 Sep 04:38:08 04:42:21 33° 69° (ENE) 04:46:34 437.345
MOZHAYETS 4 28 Sep 04:56:00 04:59:39 23° 266° (W) 05:03:21
HORYU 2 28 Sep 04:56:21 04:56:55 10° 89° (E) 04:57:29 437.375
RS-15 28 Sep 05:11:15 05:23:44 82° 55° (NE) 05:35:55 29.354- 29.394
DANDE 28 Sep 05:19:38 05:24:48 17° 57° (ENE) 05:29:52 436.750
KKS-1 28 Sep 05:20:59 05:24:08 19° 267° (W) 05:27:18 437.445
AIST 1 28 Sep 05:21:14 05:25:26 48° 93° (E) 05:29:40
YUBILEINY 28 Sep 05:23:37 05:30:35 26° 295° (WNW) 05:37:35 435.215
CUSAT 1 28 Sep 05:29:56 05:36:58 35° 67° (ENE) 05:43:03 437.405
AO-85 28 Sep 05:33:45 05:37:40 36° 48° (NE) 05:41:21 145.980
PCSat 28 Sep 05:45:59 05:51:10 45° 307° (NW) 05:56:23 145.827
ITAMSAT 1 28 Sep 05:46:12 05:49:24 17° 300° (WNW) 05:52:35 435.822/435.867
STRAND 1 28 Sep 05:47:16 05:48:35 11° 56° (NE) 05:49:55 437.568
NOAA 15 28 Sep 05:51:14 05:53:15 12° 88° (E) 05:55:15 137.62
STARS 28 Sep 05:54:34 05:57:25 17° 268° (W) 06:00:16 437.465
AO-7 28 Sep 05:55:56 06:03:52 52° 297° (WNW) 06:11:47 29.400- 29.500
AIST 2 28 Sep 06:07:07 06:09:06 13° 323° (NW) 06:11:07 435.215
Cubesat XI-IV 28 Sep 06:07:10 06:10:01 14° 89° (E) 06:12:52 437.490
CUTE-I 28 Sep 06:07:14 06:10:08 15° 90° (E) 06:13:02 437.470
Cosmos 2504 28 Sep 06:10:53 06:16:44 25° 292° (WNW) 06:22:29 435.465 / 435.565
CUBESAT XI-V 28 Sep 06:15:47 06:19:44 27° 266° (W) 06:23:44 437.345
GOMX 1 28 Sep 06:28:33 06:32:06 23° 93° (E) 06:35:29 467.674
HORYU 2 28 Sep 06:29:31 06:34:00 78° 285° (WNW) 06:38:27 437.375
BRITE-PL 28 Sep 06:39:28 06:44:21 78° 102° (ESE) 06:48:48 437.365/2234.400
NOAA 18 28 Sep 06:48:30 06:53:09 28° 95° (E) 06:57:46 137.9125
DOVE 4 28 Sep 06:49:37 06:52:10 16° 91° (E) 06:54:41 437.250
AIST 1 28 Sep 07:00:39 07:03:20 16° 291° (WNW) 07:06:02
DANDE 28 Sep 07:00:43 07:09:09 70° 77° (ENE) 07:17:00 436.750
CUSAT 1 28 Sep 07:11:51 07:19:15 50° 270° (W) 07:25:31 437.405
LilacSat-2 28 Sep 07:13:26 07:17:16 67° 101° (E) 07:21:06 437.200
AO-85 28 Sep 07:14:42 07:17:50 21° 248° (WSW) 07:20:50 145.980
O/OREOS (USA 219) 28 Sep 07:16:47 07:21:05 43° 107° (ESE) 07:25:26 437.305
STRAND 1 28 Sep 07:21:48 07:26:53 77° 74° (ENE) 07:32:01 437.568
RS-15 28 Sep 07:24:58 07:34:55 30° 258° (WSW) 07:44:42 29.354- 29.394
NOAA 15 28 Sep 07:28:21 07:33:42 86° 285° (WNW) 07:38:59 137.62
Cosmos 2499 28 Sep 07:31:04 07:33:31 12° 76° (ENE) 07:35:57 435.465 / 435.565
PCSat 28 Sep 07:34:47 07:36:01 11° 329° (NNW) 07:37:16 145.827
PRISM 28 Sep 07:37:29 07:37:45 10° 60° (ENE) 07:38:01 437.425
Cubesat XI-IV 28 Sep 07:45:18 07:50:40 76° 285° (WNW) 07:56:00 437.490
CUTE-I 28 Sep 07:45:23 07:50:44 75° 286° (WNW) 07:56:05 437.470
GONETS M04 28 Sep 07:48:40 07:55:38 27° 81° (E) 08:02:36
AO-7 28 Sep 07:51:27 07:54:44 13° 319° (NW) 07:58:02 29.400- 29.500
CINEMA 3 28 Sep 07:59:10 08:02:32 23° 95° (E) 08:05:57 145.822/145.860
GOMX 1 28 Sep 08:06:21 08:10:15 31° 292° (WNW) 08:14:00 467.674
CUTE 1.7 + AOD 2 28 Sep 08:11:47 08:15:17 24° 94° (E) 08:18:46 437.475
CANX-2 28 Sep 08:12:55 08:16:39 28° 95° (E) 08:20:21 2200.000
SEEDS 28 Sep 08:13:17 08:16:07 17° 92° (E) 08:18:58 437.485
BRITE-PL 28 Sep 08:19:55 08:22:02 13° 302° (WNW) 08:24:06 437.365/2234.400
DOVE 4 28 Sep 08:26:09 08:30:09 43° 288° (WNW) 08:34:04 437.250
NOAA 18 28 Sep 08:28:48 08:33:56 42° 292° (WNW) 08:39:02 137.9125
AAUSAT CUBESAT 2 28 Sep 08:35:17 08:37:54 16° 91° (E) 08:40:29 437.432
HO-68 28 Sep 08:37:33 08:44:28 49° 100° (E) 08:51:20 435.675
BEESAT 2 28 Sep 08:44:23 08:45:34 11° 35° (NE) 08:46:45 435.950
DANDE 28 Sep 08:44:28 08:51:13 28° 277° (W) 08:57:40 436.750
LilacSat-2 28 Sep 08:50:28 08:51:01 10° 298° (WNW) 08:51:34 437.200
O/OREOS (USA 219) 28 Sep 08:57:09 09:00:42 22° 305° (NW) 09:04:17 437.305
TIGRISAT 28 Sep 09:03:31 09:04:23 11° 60° (ENE) 09:05:13 435.000
STRAND 1 28 Sep 09:04:22 09:06:39 13° 271° (W) 09:08:56 437.568
CUBEBUG 2 28 Sep 09:04:27 09:08:21 33° 97° (E) 09:12:20 437.445
PRISM 28 Sep 09:08:13 09:12:23 84° 257° (WSW) 09:16:36 437.425
FUNcube-1 28 Sep 09:09:27 09:12:00 15° 91° (E) 09:14:34 145.935
NOAA 15 28 Sep 09:10:20 09:12:39 13° 303° (WNW) 09:14:59 137.62
Cosmos 2499 28 Sep 09:18:12 09:25:20 79° 96° (E) 09:32:24 435.465 / 435.565
COMPASS 1 28 Sep 09:18:40 09:22:52 62° 101° (E) 09:27:01 437.405
UWE-3 28 Sep 09:21:54 09:25:51 34° 97° (E) 09:29:52 435.000/436.395/437.385
BEESAT 3 28 Sep 09:24:02 09:27:45 36° 49° (NE) 09:31:26 437.485
Cubesat XI-IV 28 Sep 09:28:09 09:29:49 11° 304° (NW) 09:31:29 437.490
CUTE-I 28 Sep 09:28:17 09:29:51 11° 305° (NW) 09:31:26 437.470
CINEMA 3 28 Sep 09:36:04 09:39:42 30° 291° (WNW) 09:43:24 145.822/145.860
UNISAT 6 28 Sep 09:41:06 09:44:43 28° 68° (ENE) 09:48:20 437.425
GONETS M04 28 Sep 09:42:52 09:51:40 69° 281° (WNW) 10:00:32
CUTE 1.7 + AOD 2 28 Sep 09:47:20 09:51:09 31° 291° (WNW) 09:54:56 437.475
Oscar 11 28 Sep 09:47:57 09:52:04 39° 98° (E) 09:56:09 145.826/435.025
SEEDS 28 Sep 09:47:58 09:52:01 42° 288° (WNW) 09:56:02 437.485
CANX-2 28 Sep 09:48:47 09:52:26 27° 292° (WNW) 09:56:02 2200.000
ZACube-1 28 Sep 09:50:25 09:54:34 44° 99° (E) 09:58:48 437.345
DELFI C3 28 Sep 09:52:31 09:55:11 17° 92° (E) 09:57:51 145.870
HUMSAT D 28 Sep 10:09:16 10:11:32 14° 91° (E) 10:13:47 437.325/437.525
AAUSAT CUBESAT 2 28 Sep 10:09:35 10:13:36 45° 288° (WNW) 10:17:35 437.432
ANTELSAT 28 Sep 10:15:46 10:19:59 65° 74° (ENE) 10:24:13 437.575/2403.000
BEESAT 2 28 Sep 10:20:08 10:24:09 69° 55° (NE) 10:28:08 435.950
HO-68 28 Sep 10:25:39 10:31:57 35° 299° (WNW) 10:38:14 435.675
TIGRISAT 28 Sep 10:36:10 10:40:25 80° 256° (WSW) 10:44:41 435.000
CUBEBUG 2 28 Sep 10:41:25 10:44:49 23° 293° (WNW) 10:48:16 437.445
FUNcube-1 28 Sep 10:44:18 10:48:31 51° 287° (WNW) 10:52:47 145.935
DUCHIFAT 1 28 Sep 10:48:38 10:51:28 18° 65° (ENE) 10:54:18 145.980
QB50P1 28 Sep 10:50:47 10:53:59 21° 66° (ENE) 10:57:12 145.935-145.965
COMPASS 1 28 Sep 10:55:53 10:57:54 13° 298° (WNW) 10:59:54 437.405
UWE-3 28 Sep 10:58:44 11:02:08 23° 293° (WNW) 11:05:35 435.000/436.395/437.385
JAS-2 28 Sep 11:00:38 11:06:25 33° 61° (ENE) 11:12:46 435.910
BEESAT 3 28 Sep 11:02:07 11:05:12 22° 247° (WSW) 11:08:16 437.485
POPSAT HIP 1 28 Sep 11:03:51 11:07:28 28° 68° (ENE) 11:11:05 437.405
AIST 2 28 Sep 11:09:12 11:11:20 13° 37° (NE) 11:13:27 435.215
Cosmos 2499 28 Sep 11:14:35 11:19:20 19° 297° (WNW) 11:24:04 435.465 / 435.565
UNISAT 6 28 Sep 11:17:47 11:21:24 26° 265° (W) 11:25:00 437.425
NANOSAT C BR1 28 Sep 11:19:31 11:23:27 40° 71° (ENE) 11:27:22 145.865
Oscar 11 28 Sep 11:24:43 11:27:56 20° 294° (WNW) 11:31:08 145.826/435.025
DELFI C3 28 Sep 11:26:26 11:30:11 38° 289° (WNW) 11:33:54 145.870
ZACube-1 28 Sep 11:27:33 11:30:33 19° 295° (WNW) 11:33:35 437.345
QB50P2 28 Sep 11:43:02 11:47:15 84° 77° (ENE) 11:51:29 145.880/145.840
HUMSAT D 28 Sep 11:43:18 11:47:27 53° 287° (WNW) 11:51:37 437.325/437.525
POLYITAN 1 28 Sep 11:45:16 11:49:28 85° 74° (ENE) 11:53:41 437.675
GONETS M04 28 Sep 11:45:49 11:50:24 15° 304° (NW) 11:55:01
AISAT 28 Sep 11:46:16 11:48:05 12° 90° (E) 11:49:55 437.250
PHONESAT 2.4 28 Sep 11:46:20 11:49:01 33° 165° (SSE) 11:51:42 2401.200-2431.200
ANTELSAT 28 Sep 11:55:48 11:57:08 11° 271° (W) 11:58:29 437.575/2403.000
BEESAT 2 28 Sep 12:00:04 12:01:24 11° 251° (WSW) 12:02:43 435.950
DX 1 28 Sep 12:19:16 12:22:05 17° 92° (E) 12:24:52 434.975-435.025
DUCHIFAT 1 28 Sep 12:22:53 12:26:51 42° 261° (W) 12:30:50 145.980
BUGSAT 1 28 Sep 12:23:05 12:27:11 79° 75° (ENE) 12:31:16 437.445
QB50P1 28 Sep 12:25:43 12:29:33 34° 263° (W) 12:33:25 145.935-145.965
VELOX 1 28 Sep 12:28:05 12:32:04 33° 97° (E) 12:36:01 145.980
ESTCUBE 1 28 Sep 12:30:27 12:35:01 74° 102° (ESE) 12:39:32 437.505/2401.250
CUBEBUG 1 28 Sep 12:30:56 12:35:08 46° 99° (E) 12:39:17 437.445
POPSAT HIP 1 28 Sep 12:39:44 12:43:13 25° 265° (W) 12:46:43 437.405
JAS-2 28 Sep 12:44:46 12:51:04 52° 263° (W) 12:58:11 435.910
AIST 2 28 Sep 12:46:15 12:50:28 84° 54° (NE) 12:54:40 435.215
50 SAT 28 Sep 12:47:09 12:50:46 52° 100° (E) 12:54:20 437.505
PCSat 28 Sep 12:49:38 12:54:26 31° 48° (NE) 12:59:11 145.827
Oscar 19 28 Sep 12:51:15 12:55:56 35° 67° (ENE) 13:00:37 437.125/150
NANOSAT C BR1 28 Sep 12:56:28 12:59:19 18° 267° (W) 13:02:12 145.865
M-CUBED/EXP-1 PRIME 28 Sep 12:57:34 13:00:27 27° 103° (ESE) 13:03:18 437.505
SPROUT 28 Sep 13:09:25 13:13:36 52° 100° (E) 13:17:44 437.525
AO-7 28 Sep 13:16:10 13:20:06 14° 43° (NE) 13:24:01 29.400- 29.500
AISAT 28 Sep 13:20:37 13:24:58 63° 288° (WNW) 13:29:19 437.250
PHONESAT 2.4 28 Sep 13:22:01 13:24:54 51° 181° (S) 13:27:47 2401.200-2431.200
UKube-1 28 Sep 13:24:31 13:28:49 65° 102° (ESE) 13:33:05 .
YUBILEINY 28 Sep 13:33:28 13:41:28 38° 71° (ENE) 13:49:23 435.215
Cosmos 2491 28 Sep 13:33:55 13:39:09 18° 76° (ENE) 13:44:24 435.465 / 435.565
ITAMSAT 1 28 Sep 13:47:16 13:50:31 17° 60° (ENE) 13:53:46 435.822/435.867
Gurwin Techsat 1B 28 Sep 13:52:39 13:57:52 61° 72° (ENE) 14:03:07 435.225
AUBIESAT-1 28 Sep 13:53:49 13:57:05 59° 291° (WNW) 14:00:21 437.475
DX 1 28 Sep 13:54:21 13:58:31 46° 289° (WNW) 14:02:38 434.975-435.025
VELOX 1 28 Sep 14:04:49 14:08:23 24° 294° (WNW) 14:11:55 145.980
Cosmos 2504 28 Sep 14:06:31 14:12:10 23° 66° (ENE) 14:18:01 435.465 / 435.565
CUBEBUG 1 28 Sep 14:08:10 14:11:04 18° 296° (WNW) 14:13:55 437.445
ESTCUBE 1 28 Sep 14:09:10 14:11:13 13° 300° (WNW) 14:13:15 437.505/2401.250
SO-50 28 Sep 14:10:30 14:12:09 12° 107° (ESE) 14:13:48 436.795
50 SAT 28 Sep 14:22:29 14:23:48 12° 297° (WNW) 14:25:07 437.505
TISAT 1 28 Sep 14:27:45 14:31:56 76° 102° (ESE) 14:36:06 437.305
Oscar 19 28 Sep 14:30:42 14:35:15 30° 264° (W) 14:39:49 437.125/150
M-CUBED/EXP-1 PRIME 28 Sep 14:32:43 14:34:49 16° 299° (WNW) 14:36:54 437.505
PCSat 28 Sep 14:32:50 14:37:58 44° 247° (WSW) 14:43:04 145.827
SPROUT 28 Sep 14:46:36 14:49:07 15° 297° (WNW) 14:51:36 437.525
PHONESAT 2.4 28 Sep 14:58:09 15:00:44 27° 198° (SSW) 15:03:20 2401.200-2431.200
UKube-1 28 Sep 15:02:15 15:04:20 13° 299° (WNW) 15:06:23 .
ITUPSAT 1 28 Sep 15:02:42 15:07:03 33° 97° (E) 15:11:23 437.325
AO-7 28 Sep 15:03:04 15:11:07 57° 64° (ENE) 15:19:10 29.400- 29.500
SWISSCUBE 28 Sep 15:15:15 15:19:56 50° 100° (E) 15:24:35 437.505
ITAMSAT 1 28 Sep 15:24:16 15:29:25 69° 258° (WSW) 15:34:36 435.822/435.867
Cosmos 2491 28 Sep 15:25:47 15:34:35 86° 96° (E) 15:43:29 435.465 / 435.565
BEESAT 28 Sep 15:28:07 15:32:53 61° 101° (ESE) 15:37:36 436.000
AIST 1 28 Sep 15:28:36 15:30:49 14° 68° (ENE) 15:33:00
YUBILEINY 28 Sep 15:30:12 15:38:26 49° 271° (W) 15:46:38 435.215
Gurwin Techsat 1B 28 Sep 15:34:44 15:38:14 18° 269° (W) 15:41:46 435.225
SO-50 28 Sep 15:47:05 15:51:56 89° 298° (WNW) 15:56:45 436.795
O/OREOS (USA 219) 28 Sep 15:47:57 15:50:11 13° 49° (NE) 15:52:24 437.305
HORYU 2 28 Sep 15:54:53 15:56:37 12° 60° (ENE) 15:58:22 437.375
TISAT 1 28 Sep 16:05:55 16:06:58 11° 299° (WNW) 16:08:01 437.305
